Погода в Ширинском

Россия / Тульская область     54°03′51″N   38°21′27″E
темп.,
°C
ветер,
м/с
пор.,
м/с
влажн.,
%
обл.,
%
осадки,
мм/ч
давл.,
гПа
погр.,
м
18 мая, вт
вт1800:00+19юв6167140 0.0 1008399
03:00+15вюв413751 0.0 1009261
06:00+15вюв511795 0.0 1008239
09:00+20юв6126531 0.0 1009417
12:00+24юв710515 0.0 1008750
15:00+25вюв711575 0.0 10071101
18:00+22вюв71567100 0.0 1006573
21:00+18юв478599 0.0 1006124
19 мая, ср
ср1900:00+16ю3687100 0.0 1007118
03:00+15вюв369170 0.0 1007128
06:00+16юв498895 0.0 1008275
09:00+19ююв466797 0.0 1007873
12:00+21ююв356281 0.0 10061399
15:00+22ююв566541 1.8 10061136
18:00+20ююв357591 1.9 1006624
21:00+17юв3583100 2.1 100765
20 мая, чт
чт2000:00+15юв3588100 0.0 100778
03:00+14юв41095100 0.0 1007267
06:00+14юв5119226 0.0 1007687
09:00+16ююв697793 0.1 1007990
12:00+18ююв686199 0.2 10071578
15:00+18ююв686567 1.1 10071400
18:00+17ю57775 1.4 1006935
21:00+13ююз5119029 2.0 1007322
21 мая, пт
пт2100:00+12ю6119659 0.0 1008393
03:00+10юз7128879 0.3 1010852
06:00+9юз71389100 0.1 1011753
09:00+12юз81578100 0.1 10131391
12:00+15зюз9136561 0.1 10151431
15:00+15зюз71065100 0.1 10161441
18:00+15з4773100 0.1 10181082
21:00+11сз2281100 0.1 101919
22 мая, сб
сб2200:00+11ссв2481100 0.0 1019111
03:00+10всв3594100 2.3 1019189
06:00+10всв3698100 6.5 1020311
09:00+10св51096100 7.6 1019358
12:00+14всв7988100 0.0 1018603
15:00+16всв4585100 0.1 1017633
18:00+16ссв5691100 0.1 1016381
21:00+13с4798100 0.1 1017200